owner,sensor,date,latitude,longitude,vertical_datum,wind_speed,wind_to_direction,wind_speed_of_gust,qcFlag 
NDBC,ioos:station:NOAA.NDBC:PLSF1:1,2019-11-01T00:45:00Z,24.6930,-82.7730,10.0,0.5,20.0,1.0,'11111222,11111222,11111222' 
NDBC,ioos:station:NOAA.NDBC:PLSF1:1,2019-11-01T01:45:00Z,24.6930,-82.7730,10.0,1.5,10.0,2.6,'11111222,11111222,11111222' 
NDBC,ioos:station:NOAA.NDBC:PLSF1:1,2019-11-01T02:45:00Z,24.6930,-82.7730,10.0,2.1,40.0,2.6,'11111222,11111222,11111222' 
NDBC,ioos:station:NOAA.NDBC:PLSF1:1,2019-11-01T03:45:00Z,24.6930,-82.7730,10.0,1.5,40.0,2.6,'11111222,11111222,11111222' 
NDBC,ioos:station:NOAA.NDBC:PLSF1:1,2019-11-01T04:45:00Z,24.6930,-82.7730,10.0,1.5,50.0,3.1,'11111222,11111222,11111222' 
NDBC,ioos:station:NOAA.NDBC:PLSF1:1,2019-11-01T05:45:00Z,24.6930,-82.7730,10.0,2.1,50.0,2.6,'11111222,11111222,11111222' 
NDBC,ioos:station:NOAA.NDBC:PLSF1:1,2019-11-01T06:45:00Z,24.6930,-82.7730,10.0,3.1,70.0,3.6,'11111222,11111222,11111222' 
NDBC,ioos:station:NOAA.NDBC:PLSF1:1,2019-11-01T07:45:00Z,24.6930,-82.7730,10.0,2.1,40.0,3.1,'11111222,11111222,11111222' 
NDBC,ioos:station:NOAA.NDBC:PLSF1:1,2019-11-01T08:45:00Z,24.6930,-82.7730,10.0,3.1,70.0,3.6,'11111222,11111222,11111222' 
NDBC,ioos:station:NOAA.NDBC:PLSF1:1,2019-11-01T09:45:00Z,24.6930,-82.7730,10.0,3.6,110.0,3.6,'11111222,11111222,11111222' 
NDBC,ioos:station:NOAA.NDBC:PLSF1:1,2019-11-01T10:45:00Z,24.6930,-82.7730,10.0,2.6,70.0,3.1,'11111222,11111222,11111222' 
NDBC,ioos:station:NOAA.NDBC:PLSF1:1,2019-11-01T11:45:00Z,24.6930,-82.7730,10.0,4.1,110.0,4.6,'11111222,11111222,11111222' 
NDBC,ioos:station:NOAA.NDBC:PLSF1:1,2019-11-01T12:45:00Z,24.6930,-82.7730,10.0,3.1,90.0,3.6,'11111222,11111222,11111222' 
NDBC,ioos:station:NOAA.NDBC:PLSF1:1,2019-11-01T13:45:00Z,24.6930,-82.7730,10.0,4.1,90.0,4.6,'11111222,11111222,11111222' 
NDBC,ioos:station:NOAA.NDBC:PLSF1:1,2019-11-01T14:45:00Z,24.6930,-82.7730,10.0,2.6,50.0,3.6,'11111222,11111222,11111222' 
NDBC,ioos:station:NOAA.NDBC:PLSF1:1,2019-11-01T15:45:00Z,24.6930,-82.7730,10.0,3.6,80.0,4.1,'11111222,11111222,11111222' 
NDBC,ioos:station:NOAA.NDBC:PLSF1:1,2019-11-01T16:45:00Z,24.6930,-82.7730,10.0,2.1,40.0,2.6,'11111222,11111222,11111222' 
NDBC,ioos:station:NOAA.NDBC:PLSF1:1,2019-11-01T17:45:00Z,24.6930,-82.7730,10.0,4.1,50.0,4.6,'11111222,11111222,11111222' 
NDBC,ioos:station:NOAA.NDBC:PLSF1:1,2019-11-01T18:45:00Z,24.6930,-82.7730,10.0,3.6,80.0,4.1,'11111222,11111222,11111222' 
NDBC,ioos:station:NOAA.NDBC:PLSF1:1,2019-11-01T19:45:00Z,24.6930,-82.7730,10.0,4.1,60.0,4.6,'11111222,11111222,11111222' 
NDBC,ioos:station:NOAA.NDBC:PLSF1:1,2019-11-01T20:45:00Z,24.6930,-82.7730,10.0,4.1,50.0,4.6,'11111222,11111222,11111222' 
NDBC,ioos:station:NOAA.NDBC:PLSF1:1,2019-11-01T21:45:00Z,24.6930,-82.7730,10.0,4.1,60.0,4.6,'11111222,11111222,11111222' 
NDBC,ioos:station:NOAA.NDBC:PLSF1:1,2019-11-01T22:45:00Z,24.6930,-82.7730,10.0,4.6,60.0,4.6,'11111222,11111222,11111222' 
NDBC,ioos:station:NOAA.NDBC:PLSF1:1,2019-11-01T23:45:00Z,24.6930,-82.7730,10.0,3.6,40.0,5.1,'11111222,11111222,11111222' 
NDBC,ioos:station:NOAA.NDBC:PLSF1:1,2019-11-02T00:45:00Z,24.6930,-82.7730,10.0,3.1,30.0,3.6,'11111222,11111222,11111222' 
NDBC,ioos:station:NOAA.NDBC:PLSF1:1,2019-11-02T01:45:00Z,24.6930,-82.7730,10.0,3.6,10.0,4.1,'11111222,11111222,11111222' 
NDBC,ioos:station:NOAA.NDBC:PLSF1:1,2019-11-02T02:45:00Z,24.6930,-82.7730,10.0,3.6,20.0,4.1,'11111222,11111222,11111222' 
NDBC,ioos:station:NOAA.NDBC:PLSF1:1,2019-11-02T03:45:00Z,24.6930,-82.7730,10.0,4.6,10.0,5.1,'11111222,11111222,11111222' 
NDBC,ioos:station:NOAA.NDBC:PLSF1:1,2019-11-02T04:45:00Z,24.6930,-82.7730,10.0,5.1,10.0,5.7,'11111222,11111222,11111222' 
NDBC,ioos:station:NOAA.NDBC:PLSF1:1,2019-11-02T05:45:00Z,24.6930,-82.7730,10.0,5.7,20.0,6.2,'11111222,11111222,11111222' 
NDBC,ioos:station:NOAA.NDBC:PLSF1:1,2019-11-02T06:45:00Z,24.6930,-82.7730,10.0,6.2,10.0,6.7,'11111222,11111222,11111222' 
NDBC,ioos:station:NOAA.NDBC:PLSF1:1,2019-11-02T07:45:00Z,24.6930,-82.7730,10.0,6.2,20.0,6.7,'11111222,11111222,11111222' 
NDBC,ioos:station:NOAA.NDBC:PLSF1:1,2019-11-02T08:45:00Z,24.6930,-82.7730,10.0,4.6,340.0,5.1,'11111222,11111222,11111222' 
NDBC,ioos:station:NOAA.NDBC:PLSF1:1,2019-11-02T09:45:00Z,24.6930,-82.7730,10.0,2.1,360.0,2.6,'11111222,11144222,11111222' 
NDBC,ioos:station:NOAA.NDBC:PLSF1:1,2019-11-02T10:45:00Z,24.6930,-82.7730,10.0,2.1,30.0,2.6,'11111222,11111222,11111222' 
NDBC,ioos:station:NOAA.NDBC:PLSF1:1,2019-11-02T11:45:00Z,24.6930,-82.7730,10.0,3.1,90.0,3.6,'11111222,11111222,11111222' 
NDBC,ioos:station:NOAA.NDBC:PLSF1:1,2019-11-02T12:45:00Z,24.6930,-82.7730,10.0,3.1,90.0,3.6,'11111222,11111222,11111222' 
NDBC,ioos:station:NOAA.NDBC:PLSF1:1,2019-11-02T13:45:00Z,24.6930,-82.7730,10.0,4.1,80.0,4.6,'11111222,11111222,11111222' 
NDBC,ioos:station:NOAA.NDBC:PLSF1:1,2019-11-02T14:45:00Z,24.6930,-82.7730,10.0,4.6,60.0,5.1,'11111222,11111222,11111222' 
NDBC,ioos:station:NOAA.NDBC:PLSF1:1,2019-11-02T15:45:00Z,24.6930,-82.7730,10.0,6.2,40.0,6.7,'11111222,11111222,11111222' 
NDBC,ioos:station:NOAA.NDBC:PLSF1:1,2019-11-02T16:45:00Z,24.6930,-82.7730,10.0,4.1,60.0,4.6,'11111222,11111222,11111222' 
NDBC,ioos:station:NOAA.NDBC:PLSF1:1,2019-11-02T17:45:00Z,24.6930,-82.7730,10.0,3.6,50.0,4.1,'11111222,11111222,11111222' 
NDBC,ioos:station:NOAA.NDBC:PLSF1:1,2019-11-02T18:45:00Z,24.6930,-82.7730,10.0,3.6,60.0,4.1,'11111222,11111222,11111222' 
NDBC,ioos:station:NOAA.NDBC:PLSF1:1,2019-11-02T19:45:00Z,24.6930,-82.7730,10.0,5.1,40.0,5.7,'11111222,11111222,11111222' 
NDBC,ioos:station:NOAA.NDBC:PLSF1:1,2019-11-02T20:45:00Z,24.6930,-82.7730,10.0,5.1,40.0,5.7,'11111222,11111222,11111222' 
NDBC,ioos:station:NOAA.NDBC:PLSF1:1,2019-11-02T21:45:00Z,24.6930,-82.7730,10.0,4.6,20.0,5.1,'11111222,11111222,11111222' 
NDBC,ioos:station:NOAA.NDBC:PLSF1:1,2019-11-02T22:45:00Z,24.6930,-82.7730,10.0,6.2,30.0,6.7,'11111222,11111222,11111222' 
NDBC,ioos:station:NOAA.NDBC:PLSF1:1,2019-11-02T23:45:00Z,24.6930,-82.7730,10.0,6.7,10.0,7.7,'11111222,11111222,11111222' 
NDBC,ioos:station:NOAA.NDBC:PLSF1:1,2019-11-03T00:45:00Z,24.6930,-82.7730,10.0,7.2,350.0,8.2,'11111222,11111222,11111222' 
NDBC,ioos:station:NOAA.NDBC:PLSF1:1,2019-11-03T01:45:00Z,24.6930,-82.7730,10.0,7.2,10.0,7.7,'11111222,11111222,11111222' 
NDBC,ioos:station:NOAA.NDBC:PLSF1:1,2019-11-03T02:45:00Z,24.6930,-82.7730,10.0,6.7,10.0,7.2,'11111222,11111222,11111222' 
NDBC,ioos:station:NOAA.NDBC:PLSF1:1,2019-11-03T03:45:00Z,24.6930,-82.7730,10.0,8.8,30.0,9.3,'11111222,11111222,11111222' 
NDBC,ioos:station:NOAA.NDBC:PLSF1:1,2019-11-03T04:45:00Z,24.6930,-82.7730,10.0,8.2,40.0,8.8,'11111222,11111222,11111222' 
NDBC,ioos:station:NOAA.NDBC:PLSF1:1,2019-11-03T05:45:00Z,24.6930,-82.7730,10.0,9.8,40.0,10.3,'11111222,11111222,11111222' 
NDBC,ioos:station:NOAA.NDBC:PLSF1:1,2019-11-03T06:45:00Z,24.6930,-82.7730,10.0,10.8,20.0,11.8,'11111222,11111222,11111222' 
NDBC,ioos:station:NOAA.NDBC:PLSF1:1,2019-11-03T07:45:00Z,24.6930,-82.7730,10.0,9.8,20.0,10.3,'11111222,11111222,11111222' 
NDBC,ioos:station:NOAA.NDBC:PLSF1:1,2019-11-03T08:45:00Z,24.6930,-82.7730,10.0,9.8,30.0,10.8,'11111222,11111222,11111222' 
NDBC,ioos:station:NOAA.NDBC:PLSF1:1,2019-11-03T09:45:00Z,24.6930,-82.7730,10.0,5.1,30.0,5.7,'11111222,11111222,11111222' 
NDBC,ioos:station:NOAA.NDBC:PLSF1:1,2019-11-03T10:45:00Z,24.6930,-82.7730,10.0,5.7,30.0,6.2,'11111222,11111222,11111222' 
NDBC,ioos:station:NOAA.NDBC:PLSF1:1,2019-11-03T11:45:00Z,24.6930,-82.7730,10.0,4.6,40.0,5.1,'11111222,11111222,11111222' 
NDBC,ioos:station:NOAA.NDBC:PLSF1:1,2019-11-03T12:45:00Z,24.6930,-82.7730,10.0,4.6,50.0,5.1,'11111222,11111222,11111222' 
NDBC,ioos:station:NOAA.NDBC:PLSF1:1,2019-11-03T13:45:00Z,24.6930,-82.7730,10.0,4.1,50.0,4.6,'11111222,11111222,11111222' 
NDBC,ioos:station:NOAA.NDBC:PLSF1:1,2019-11-03T14:45:00Z,24.6930,-82.7730,10.0,4.1,60.0,4.6,'11111222,11111222,11111222' 
NDBC,ioos:station:NOAA.NDBC:PLSF1:1,2019-11-03T15:45:00Z,24.6930,-82.7730,10.0,4.1,50.0,4.6,'11111222,11111222,11111222' 
NDBC,ioos:station:NOAA.NDBC:PLSF1:1,2019-11-03T16:45:00Z,24.6930,-82.7730,10.0,3.6,60.0,4.6,'11111222,11111222,11111222' 
NDBC,ioos:station:NOAA.NDBC:PLSF1:1,2019-11-03T17:45:00Z,24.6930,-82.7730,10.0,7.2,60.0,8.2,'11111222,11111222,11111222' 
NDBC,ioos:station:NOAA.NDBC:PLSF1:1,2019-11-03T18:45:00Z,24.6930,-82.7730,10.0,6.7,80.0,7.2,'11111222,11111222,11111222' 
NDBC,ioos:station:NOAA.NDBC:PLSF1:1,2019-11-03T19:45:00Z,24.6930,-82.7730,10.0,7.2,70.0,7.7,'11111222,11111222,11111222' 
NDBC,ioos:station:NOAA.NDBC:PLSF1:1,2019-11-03T20:45:00Z,24.6930,-82.7730,10.0,7.7,70.0,8.8,'11111222,11111222,11111222' 
NDBC,ioos:station:NOAA.NDBC:PLSF1:1,2019-11-03T21:45:00Z,24.6930,-82.7730,10.0,7.7,60.0,8.2,'11111222,11111222,11111222' 
NDBC,ioos:station:NOAA.NDBC:PLSF1:1,2019-11-03T22:45:00Z,24.6930,-82.7730,10.0,8.2,60.0,8.8,'11111222,11111222,11111222' 
NDBC,ioos:station:NOAA.NDBC:PLSF1:1,2019-11-03T23:45:00Z,24.6930,-82.7730,10.0,7.2,60.0,8.2,'11111222,11111222,11111222' 
NDBC,ioos:station:NOAA.NDBC:PLSF1:1,2019-11-04T00:45:00Z,24.6930,-82.7730,10.0,9.8,60.0,10.3,'11111222,11111222,11111222' 
NDBC,ioos:station:NOAA.NDBC:PLSF1:1,2019-11-04T01:45:00Z,24.6930,-82.7730,10.0,11.3,60.0,12.4,'11111222,11111222,11111222' 
NDBC,ioos:station:NOAA.NDBC:PLSF1:1,2019-11-04T02:45:00Z,24.6930,-82.7730,10.0,10.3,70.0,11.3,'11111222,11111222,11111222' 
NDBC,ioos:station:NOAA.NDBC:PLSF1:1,2019-11-04T03:45:00Z,24.6930,-82.7730,10.0,11.8,80.0,13.9,'11111222,11111222,11111222' 
NDBC,ioos:station:NOAA.NDBC:PLSF1:1,2019-11-04T04:45:00Z,24.6930,-82.7730,10.0,10.8,80.0,11.8,'11111222,11111222,11111222' 
NDBC,ioos:station:NOAA.NDBC:PLSF1:1,2019-11-04T15:45:00Z,24.6930,-82.7730,10.0,7.2,100.0,7.7,'11111222,11111222,11111222' 
NDBC,ioos:station:NOAA.NDBC:PLSF1:1,2019-11-04T16:45:00Z,24.6930,-82.7730,10.0,7.7,90.0,8.2,'11111222,11111222,11111222' 
NDBC,ioos:station:NOAA.NDBC:PLSF1:1,2019-11-04T17:45:00Z,24.6930,-82.7730,10.0,6.7,90.0,7.2,'11111222,11111222,11111222' 
NDBC,ioos:station:NOAA.NDBC:PLSF1:1,2019-11-04T18:45:00Z,24.6930,-82.7730,10.0,6.2,140.0,7.2,'11111222,11111222,11111222' 
NDBC,ioos:station:NOAA.NDBC:PLSF1:1,2019-11-04T19:45:00Z,24.6930,-82.7730,10.0,5.7,110.0,6.2,'11111222,11111222,11111222' 
NDBC,ioos:station:NOAA.NDBC:PLSF1:1,2019-11-04T20:45:00Z,24.6930,-82.7730,10.0,6.2,100.0,7.2,'11111222,11111222,11111222' 
NDBC,ioos:station:NOAA.NDBC:PLSF1:1,2019-11-04T21:45:00Z,24.6930,-82.7730,10.0,5.7,160.0,6.2,'11111222,11111222,11111222' 
NDBC,ioos:station:NOAA.NDBC:PLSF1:1,2019-11-04T22:45:00Z,24.6930,-82.7730,10.0,7.2,120.0,7.7,'11111222,11111222,11111222' 
NDBC,ioos:station:NOAA.NDBC:PLSF1:1,2019-11-04T23:45:00Z,24.6930,-82.7730,10.0,6.7,140.0,7.7,'11111222,11111222,11111222' 
NDBC,ioos:station:NOAA.NDBC:PLSF1:1,2019-11-05T00:45:00Z,24.6930,-82.7730,10.0,6.2,130.0,6.7,'11111222,11111222,11111222' 
NDBC,ioos:station:NOAA.NDBC:PLSF1:1,2019-11-05T01:45:00Z,24.6930,-82.7730,10.0,7.2,120.0,7.7,'11111222,11111222,11111222' 
NDBC,ioos:station:NOAA.NDBC:PLSF1:1,2019-11-05T02:45:00Z,24.6930,-82.7730,10.0,6.7,130.0,8.2,'11111222,11111222,11111222' 
NDBC,ioos:station:NOAA.NDBC:PLSF1:1,2019-11-05T03:45:00Z,24.6930,-82.7730,10.0,7.7,110.0,9.3,'11111222,11111222,11111222' 
NDBC,ioos:station:NOAA.NDBC:PLSF1:1,2019-11-05T04:45:00Z,24.6930,-82.7730,10.0,6.7,100.0,7.7,'11111222,11111222,11111222' 
NDBC,ioos:station:NOAA.NDBC:PLSF1:1,2019-11-05T05:45:00Z,24.6930,-82.7730,10.0,7.2,100.0,8.2,'11111222,11111222,11111222' 
NDBC,ioos:station:NOAA.NDBC:PLSF1:1,2019-11-05T06:45:00Z,24.6930,-82.7730,10.0,7.2,100.0,8.2,'11111222,11111222,11111222' 
NDBC,ioos:station:NOAA.NDBC:PLSF1:1,2019-11-05T07:45:00Z,24.6930,-82.7730,10.0,7.2,90.0,7.7,'11111222,11111222,11111222' 
NDBC,ioos:station:NOAA.NDBC:PLSF1:1,2019-11-05T08:45:00Z,24.6930,-82.7730,10.0,10.8,120.0,12.4,'11111222,11111222,11111222' 
NDBC,ioos:station:NOAA.NDBC:PLSF1:1,2019-11-05T09:45:00Z,24.6930,-82.7730,10.0,6.7,110.0,7.2,'11111222,11111222,11111222' 
NDBC,ioos:station:NOAA.NDBC:PLSF1:1,2019-11-05T10:45:00Z,24.6930,-82.7730,10.0,7.7,100.0,8.8,'11111222,11111222,11111222' 
NDBC,ioos:station:NOAA.NDBC:PLSF1:1,2019-11-05T11:45:00Z,24.6930,-82.7730,10.0,7.2,120.0,8.2,'11111222,11111222,11111222' 
NDBC,ioos:station:NOAA.NDBC:PLSF1:1,2019-11-05T12:45:00Z,24.6930,-82.7730,10.0,6.2,120.0,7.2,'11111222,11111222,11111222' 
NDBC,ioos:station:NOAA.NDBC:PLSF1:1,2019-11-05T13:45:00Z,24.6930,-82.7730,10.0,6.7,130.0,7.2,'11111222,11111222,11111222' 
NDBC,ioos:station:NOAA.NDBC:PLSF1:1,2019-11-05T14:45:00Z,24.6930,-82.7730,10.0,6.7,110.0,7.2,'11111222,11111222,11111222' 
NDBC,ioos:station:NOAA.NDBC:PLSF1:1,2019-11-05T15:45:00Z,24.6930,-82.7730,10.0,5.7,100.0,6.2,'11111222,11111222,11111222' 
NDBC,ioos:station:NOAA.NDBC:PLSF1:1,2019-11-05T16:45:00Z,24.6930,-82.7730,10.0,5.1,100.0,5.7,'11111222,11111222,11111222' 
NDBC,ioos:station:NOAA.NDBC:PLSF1:1,2019-11-05T17:45:00Z,24.6930,-82.7730,10.0,4.6,90.0,5.1,'11111222,11111222,11111222' 
NDBC,ioos:station:NOAA.NDBC:PLSF1:1,2019-11-05T18:45:00Z,24.6930,-82.7730,10.0,5.1,90.0,5.7,'11111222,11111222,11111222' 
NDBC,ioos:station:NOAA.NDBC:PLSF1:1,2019-11-05T19:45:00Z,24.6930,-82.7730,10.0,5.7,80.0,6.7,'11111222,11111222,11111222' 
NDBC,ioos:station:NOAA.NDBC:PLSF1:1,2019-11-05T20:45:00Z,24.6930,-82.7730,10.0,6.7,80.0,7.2,'11111222,11111222,11111222' 
NDBC,ioos:station:NOAA.NDBC:PLSF1:1,2019-11-05T21:45:00Z,24.6930,-82.7730,10.0,5.7,90.0,6.2,'11111222,11111222,11111222' 
NDBC,ioos:station:NOAA.NDBC:PLSF1:1,2019-11-05T22:45:00Z,24.6930,-82.7730,10.0,5.7,80.0,6.7,'11111222,11111222,11111222' 
NDBC,ioos:station:NOAA.NDBC:PLSF1:1,2019-11-05T23:45:00Z,24.6930,-82.7730,10.0,5.7,80.0,6.2,'11111222,11111222,11111222' 
NDBC,ioos:station:NOAA.NDBC:PLSF1:1,2019-11-06T00:45:00Z,24.6930,-82.7730,10.0,5.7,80.0,6.7,'11111222,11111222,11111222' 
NDBC,ioos:station:NOAA.NDBC:PLSF1:1,2019-11-06T01:45:00Z,24.6930,-82.7730,10.0,5.7,100.0,6.7,'11111222,11111222,11111222' 
NDBC,ioos:station:NOAA.NDBC:PLSF1:1,2019-11-06T02:45:00Z,24.6930,-82.7730,10.0,6.2,70.0,7.2,'11111222,11111222,11111222' 
NDBC,ioos:station:NOAA.NDBC:PLSF1:1,2019-11-06T03:45:00Z,24.6930,-82.7730,10.0,5.7,70.0,6.2,'11111222,11111222,11111222' 
NDBC,ioos:station:NOAA.NDBC:PLSF1:1,2019-11-06T04:45:00Z,24.6930,-82.7730,10.0,4.6,60.0,5.1,'11111222,11111222,11111222' 
NDBC,ioos:station:NOAA.NDBC:PLSF1:1,2019-11-06T05:45:00Z,24.6930,-82.7730,10.0,5.1,60.0,5.7,'11111222,11111222,11111222' 
NDBC,ioos:station:NOAA.NDBC:PLSF1:1,2019-11-06T06:45:00Z,24.6930,-82.7730,10.0,3.6,70.0,4.6,'11111222,11111222,11111222' 
NDBC,ioos:station:NOAA.NDBC:PLSF1:1,2019-11-06T07:45:00Z,24.6930,-82.7730,10.0,5.1,90.0,5.7,'11111222,11111222,11111222' 
NDBC,ioos:station:NOAA.NDBC:PLSF1:1,2019-11-06T08:45:00Z,24.6930,-82.7730,10.0,4.6,100.0,4.6,'11111222,11111222,11111222' 
NDBC,ioos:station:NOAA.NDBC:PLSF1:1,2019-11-06T09:45:00Z,24.6930,-82.7730,10.0,5.7,110.0,6.2,'11111222,11111222,11111222' 
NDBC,ioos:station:NOAA.NDBC:PLSF1:1,2019-11-06T10:45:00Z,24.6930,-82.7730,10.0,7.2,100.0,7.7,'11111222,11111222,11111222' 
NDBC,ioos:station:NOAA.NDBC:PLSF1:1,2019-11-06T11:45:00Z,24.6930,-82.7730,10.0,7.7,90.0,8.2,'11111222,11111222,11111222' 
NDBC,ioos:station:NOAA.NDBC:PLSF1:1,2019-11-06T12:45:00Z,24.6930,-82.7730,10.0,7.7,80.0,8.8,'11111222,11111222,11111222' 
NDBC,ioos:station:NOAA.NDBC:PLSF1:1,2019-11-06T13:45:00Z,24.6930,-82.7730,10.0,8.2,90.0,8.8,'11111222,11111222,11111222' 
NDBC,ioos:station:NOAA.NDBC:PLSF1:1,2019-11-06T14:45:00Z,24.6930,-82.7730,10.0,8.2,80.0,9.3,'11111222,11111222,11111222' 
NDBC,ioos:station:NOAA.NDBC:PLSF1:1,2019-11-06T15:45:00Z,24.6930,-82.7730,10.0,8.8,70.0,9.3,'11111222,11111222,11111222' 
NDBC,ioos:station:NOAA.NDBC:PLSF1:1,2019-11-06T16:45:00Z,24.6930,-82.7730,10.0,8.2,90.0,8.8,'11111222,11111222,11111222' 
NDBC,ioos:station:NOAA.NDBC:PLSF1:1,2019-11-06T17:45:00Z,24.6930,-82.7730,10.0,8.8,80.0,9.3,'11111222,11111222,11111222' 
NDBC,ioos:station:NOAA.NDBC:PLSF1:1,2019-11-06T18:45:00Z,24.6930,-82.7730,10.0,8.8,90.0,9.3,'11111222,11111222,11111222' 
NDBC,ioos:station:NOAA.NDBC:PLSF1:1,2019-11-06T19:45:00Z,24.6930,-82.7730,10.0,7.7,90.0,8.8,'11111222,11111222,11111222' 
NDBC,ioos:station:NOAA.NDBC:PLSF1:1,2019-11-06T20:45:00Z,24.6930,-82.7730,10.0,7.7,90.0,8.8,'11111222,11111222,11111222' 
NDBC,ioos:station:NOAA.NDBC:PLSF1:1,2019-11-06T21:45:00Z,24.6930,-82.7730,10.0,7.7,90.0,8.2,'11111222,11111222,11111222' 
NDBC,ioos:station:NOAA.NDBC:PLSF1:1,2019-11-06T22:45:00Z,24.6930,-82.7730,10.0,7.7,70.0,8.2,'11111222,11111222,11111222' 
NDBC,ioos:station:NOAA.NDBC:PLSF1:1,2019-11-06T23:45:00Z,24.6930,-82.7730,10.0,6.2,70.0,6.7,'11111222,11111222,11111222' 
NDBC,ioos:station:NOAA.NDBC:PLSF1:1,2019-11-07T00:45:00Z,24.6930,-82.7730,10.0,6.2,60.0,6.7,'11111222,11111222,11111222' 
NDBC,ioos:station:NOAA.NDBC:PLSF1:1,2019-11-07T01:45:00Z,24.6930,-82.7730,10.0,6.7,70.0,7.7,'11111222,11111222,11111222' 
NDBC,ioos:station:NOAA.NDBC:PLSF1:1,2019-11-07T02:45:00Z,24.6930,-82.7730,10.0,7.2,100.0,7.7,'11111222,11111222,11111222' 
NDBC,ioos:station:NOAA.NDBC:PLSF1:1,2019-11-07T03:45:00Z,24.6930,-82.7730,10.0,9.8,100.0,10.8,'11111222,11111222,11111222' 
NDBC,ioos:station:NOAA.NDBC:PLSF1:1,2019-11-07T04:45:00Z,24.6930,-82.7730,10.0,9.8,100.0,10.8,'11111222,11111222,11111222' 
NDBC,ioos:station:NOAA.NDBC:PLSF1:1,2019-11-07T05:45:00Z,24.6930,-82.7730,10.0,8.8,100.0,9.3,'11111222,11111222,11111222' 
NDBC,ioos:station:NOAA.NDBC:PLSF1:1,2019-11-07T06:45:00Z,24.6930,-82.7730,10.0,8.8,90.0,9.8,'11111222,11111222,11111222' 
NDBC,ioos:station:NOAA.NDBC:PLSF1:1,2019-11-07T07:45:00Z,24.6930,-82.7730,10.0,9.3,110.0,9.8,'11111222,11111222,11111222' 
NDBC,ioos:station:NOAA.NDBC:PLSF1:1,2019-11-07T08:45:00Z,24.6930,-82.7730,10.0,9.3,90.0,10.3,'11111222,11111222,11111222' 
NDBC,ioos:station:NOAA.NDBC:PLSF1:1,2019-11-07T09:45:00Z,24.6930,-82.7730,10.0,9.3,90.0,10.3,'11111222,11111222,11111222' 
NDBC,ioos:station:NOAA.NDBC:PLSF1:1,2019-11-07T10:45:00Z,24.6930,-82.7730,10.0,7.7,90.0,8.8,'11111222,11111222,11111222' 
NDBC,ioos:station:NOAA.NDBC:PLSF1:1,2019-11-07T11:45:00Z,24.6930,-82.7730,10.0,10.3,110.0,11.3,'11111222,11111222,11111222' 
NDBC,ioos:station:NOAA.NDBC:PLSF1:1,2019-11-07T12:45:00Z,24.6930,-82.7730,10.0,9.8,90.0,10.3,'11111222,11111222,11111222' 
NDBC,ioos:station:NOAA.NDBC:PLSF1:1,2019-11-07T13:45:00Z,24.6930,-82.7730,10.0,8.8,90.0,9.8,'11111222,11111222,11111222' 
NDBC,ioos:station:NOAA.NDBC:PLSF1:1,2019-11-07T14:45:00Z,24.6930,-82.7730,10.0,8.8,90.0,9.3,'11111222,11111222,11111222' 
NDBC,ioos:station:NOAA.NDBC:PLSF1:1,2019-11-07T15:45:00Z,24.6930,-82.7730,10.0,8.8,90.0,9.8,'11111222,11111222,11111222' 
NDBC,ioos:station:NOAA.NDBC:PLSF1:1,2019-11-07T16:45:00Z,24.6930,-82.7730,10.0,8.2,80.0,8.8,'11111222,11111222,11111222' 
NDBC,ioos:station:NOAA.NDBC:PLSF1:1,2019-11-07T17:45:00Z,24.6930,-82.7730,10.0,7.7,80.0,9.3,'11111222,11111222,11111222' 
NDBC,ioos:station:NOAA.NDBC:PLSF1:1,2019-11-07T18:45:00Z,24.6930,-82.7730,10.0,7.7,90.0,8.8,'11111222,11111222,11111222' 
NDBC,ioos:station:NOAA.NDBC:PLSF1:1,2019-11-07T19:45:00Z,24.6930,-82.7730,10.0,7.7,80.0,8.8,'11111222,11111222,11111222' 
NDBC,ioos:station:NOAA.NDBC:PLSF1:1,2019-11-07T20:45:00Z,24.6930,-82.7730,10.0,8.2,90.0,8.8,'11111222,11111222,11111222' 
NDBC,ioos:station:NOAA.NDBC:PLSF1:1,2019-11-07T21:45:00Z,24.6930,-82.7730,10.0,7.7,90.0,8.2,'11111222,11111222,11111222' 
NDBC,ioos:station:NOAA.NDBC:PLSF1:1,2019-11-07T22:45:00Z,24.6930,-82.7730,10.0,6.7,90.0,7.7,'11111222,11111222,11111222' 
NDBC,ioos:station:NOAA.NDBC:PLSF1:1,2019-11-07T23:45:00Z,24.6930,-82.7730,10.0,7.7,90.0,8.2,'11111222,11111222,11111222' 
NDBC,ioos:station:NOAA.NDBC:PLSF1:1,2019-11-08T00:45:00Z,24.6930,-82.7730,10.0,6.7,90.0,7.2,'11111222,11111222,11111222' 
NDBC,ioos:station:NOAA.NDBC:PLSF1:1,2019-11-08T01:45:00Z,24.6930,-82.7730,10.0,6.7,80.0,7.7,'11111222,11111222,11111222' 
NDBC,ioos:station:NOAA.NDBC:PLSF1:1,2019-11-08T02:45:00Z,24.6930,-82.7730,10.0,7.7,90.0,8.8,'11111222,11111222,11111222' 
NDBC,ioos:station:NOAA.NDBC:PLSF1:1,2019-11-08T03:45:00Z,24.6930,-82.7730,10.0,6.2,90.0,6.7,'11111222,11111222,11111222' 
NDBC,ioos:station:NOAA.NDBC:PLSF1:1,2019-11-08T04:45:00Z,24.6930,-82.7730,10.0,5.7,90.0,6.7,'11111222,11111222,11111222' 
NDBC,ioos:station:NOAA.NDBC:PLSF1:1,2019-11-08T05:45:00Z,24.6930,-82.7730,10.0,5.1,90.0,5.7,'11111222,11111222,11111222' 
NDBC,ioos:station:NOAA.NDBC:PLSF1:1,2019-11-08T06:45:00Z,24.6930,-82.7730,10.0,4.6,90.0,5.1,'11111222,11111222,11111222' 
NDBC,ioos:station:NOAA.NDBC:PLSF1:1,2019-11-08T07:45:00Z,24.6930,-82.7730,10.0,4.1,90.0,4.6,'11111222,11111222,11111222' 
NDBC,ioos:station:NOAA.NDBC:PLSF1:1,2019-11-08T08:45:00Z,24.6930,-82.7730,10.0,3.6,60.0,5.1,'11111222,11111222,11111222' 
NDBC,ioos:station:NOAA.NDBC:PLSF1:1,2019-11-08T09:45:00Z,24.6930,-82.7730,10.0,2.6,50.0,3.6,'11111222,11111222,11111222' 
NDBC,ioos:station:NOAA.NDBC:PLSF1:1,2019-11-08T10:45:00Z,24.6930,-82.7730,10.0,3.6,50.0,4.6,'11111222,11111222,11111222' 
NDBC,ioos:station:NOAA.NDBC:PLSF1:1,2019-11-08T11:45:00Z,24.6930,-82.7730,10.0,5.1,90.0,5.7,'11111222,11111222,11111222' 
NDBC,ioos:station:NOAA.NDBC:PLSF1:1,2019-11-08T12:45:00Z,24.6930,-82.7730,10.0,4.1,90.0,4.6,'11111222,11111222,11111222' 
NDBC,ioos:station:NOAA.NDBC:PLSF1:1,2019-11-08T13:45:00Z,24.6930,-82.7730,10.0,4.6,80.0,5.1,'11111222,11111222,11111222' 
NDBC,ioos:station:NOAA.NDBC:PLSF1:1,2019-11-08T14:45:00Z,24.6930,-82.7730,10.0,4.6,80.0,5.1,'11111222,11111222,11111222' 
NDBC,ioos:station:NOAA.NDBC:PLSF1:1,2019-11-08T15:45:00Z,24.6930,-82.7730,10.0,3.6,70.0,3.6,'11111222,11111222,11111222' 
NDBC,ioos:station:NOAA.NDBC:PLSF1:1,2019-11-08T16:45:00Z,24.6930,-82.7730,10.0,3.6,50.0,4.1,'11111222,11111222,11111222' 
NDBC,ioos:station:NOAA.NDBC:PLSF1:1,2019-11-08T17:45:00Z,24.6930,-82.7730,10.0,3.6,40.0,4.1,'11111222,11111222,11111222' 
NDBC,ioos:station:NOAA.NDBC:PLSF1:1,2019-11-08T18:45:00Z,24.6930,-82.7730,10.0,3.6,70.0,4.1,'11111222,11111222,11111222' 
NDBC,ioos:station:NOAA.NDBC:PLSF1:1,2019-11-08T19:45:00Z,24.6930,-82.7730,10.0,4.6,40.0,5.1,'11111222,11111222,11111222' 
NDBC,ioos:station:NOAA.NDBC:PLSF1:1,2019-11-08T20:45:00Z,24.6930,-82.7730,10.0,3.6,60.0,4.1,'11111222,11111222,11111222' 
NDBC,ioos:station:NOAA.NDBC:PLSF1:1,2019-11-08T21:45:00Z,24.6930,-82.7730,10.0,3.6,60.0,4.1,'11111222,11111222,11111222' 
NDBC,ioos:station:NOAA.NDBC:PLSF1:1,2019-11-08T22:45:00Z,24.6930,-82.7730,10.0,4.6,40.0,5.1,'11111222,11111222,11111222' 
NDBC,ioos:station:NOAA.NDBC:PLSF1:1,2019-11-08T23:45:00Z,24.6930,-82.7730,10.0,3.6,40.0,4.6,'11111222,11111222,11111222' 
NDBC,ioos:station:NOAA.NDBC:PLSF1:1,2019-11-09T00:45:00Z,24.6930,-82.7730,10.0,3.6,20.0,3.6,'11111222,11111222,11111222' 
NDBC,ioos:station:NOAA.NDBC:PLSF1:1,2019-11-09T01:45:00Z,24.6930,-82.7730,10.0,3.6,30.0,4.6,'11111222,11111222,11111222' 
NDBC,ioos:station:NOAA.NDBC:PLSF1:1,2019-11-09T02:45:00Z,24.6930,-82.7730,10.0,2.1,10.0,2.6,'11111222,11111222,11111222' 
NDBC,ioos:station:NOAA.NDBC:PLSF1:1,2019-11-09T03:45:00Z,24.6930,-82.7730,10.0,4.1,30.0,4.6,'11111222,11111222,11111222' 
NDBC,ioos:station:NOAA.NDBC:PLSF1:1,2019-11-09T04:45:00Z,24.6930,-82.7730,10.0,3.6,30.0,4.1,'11111222,11111222,11111222' 
NDBC,ioos:station:NOAA.NDBC:PLSF1:1,2019-11-09T05:45:00Z,24.6930,-82.7730,10.0,1.0,10.0,1.5,'11111222,11111222,11111222' 
NDBC,ioos:station:NOAA.NDBC:PLSF1:1,2019-11-09T06:45:00Z,24.6930,-82.7730,10.0,2.1,360.0,2.6,'11111222,11144222,11111222' 
NDBC,ioos:station:NOAA.NDBC:PLSF1:1,2019-11-09T07:45:00Z,24.6930,-82.7730,10.0,1.0,360.0,1.5,'11111222,11144222,11111222' 
NDBC,ioos:station:NOAA.NDBC:PLSF1:1,2019-11-09T08:45:00Z,24.6930,-82.7730,10.0,0.5,330.0,1.0,'11111222,11111222,11111222' 
NDBC,ioos:station:NOAA.NDBC:PLSF1:1,2019-11-09T09:45:00Z,24.6930,-82.7730,10.0,2.1,320.0,2.6,'11111222,11111222,11111222' 
NDBC,ioos:station:NOAA.NDBC:PLSF1:1,2019-11-09T10:45:00Z,24.6930,-82.7730,10.0,3.6,300.0,4.1,'11111222,11111222,11111222' 
NDBC,ioos:station:NOAA.NDBC:PLSF1:1,2019-11-09T11:45:00Z,24.6930,-82.7730,10.0,6.7,40.0,7.2,'11111222,11111222,11111222' 
NDBC,ioos:station:NOAA.NDBC:PLSF1:1,2019-11-09T12:45:00Z,24.6930,-82.7730,10.0,4.6,50.0,5.1,'11111222,11111222,11111222' 